Regional Weather Roundup
Issued by NWS

Home | Current Version | Previous Version | Text Only | Print | Product List | Glossary Off
Versions: 1 2 3 4 5 6 7 8 9 10 11 12 13 14 15 16 17 18 19 20 21 22 23 24 25 26 27

000
ASUS45 KBOU 201307
RWRCO

WEATHER ROUNDUP FOR COLORADO
NATIONAL WEATHER SERVICE DENVER/BOULDER CO
600 AM MST FRI JAN 20 2017

NOTE: "FAIR" INDICATES FEW OR NO CLOUDS BELOW 12000 FEET WITH NO
SIGNIFICANT WEATHER AND/OR OBSTRUCTIONS TO VISIBILITY.

COZ001>005-013-030-031-201400-
...NORTHWEST COLORADO...

CITY           SKY/WX    TMP DP  RH WIND       PRES   REMARKS
CRAIG          LGT SNOW  25  22  88 CALM      29.56S FOG
HAYDEN         CLOUDY    25  21  86 CALM      29.55R
MEEKER         LGT SNOW  25  23  92 CALM      29.55R FOG
MOUNT WERNER   NOT AVBL
STEAMBOAT SPGS CLOUDY    22  21  95 CALM      29.53S
WALDEN           N/A     21  18  86 S5        29.51S WCI  15
$$

COZ006>008-011-201400-
...WEST CENTRAL VALLEYS...

CITY           SKY/WX    TMP DP  RH WIND       PRES   REMARKS
GRAND JUNCTION LGT SNOW  31  31 100 CALM      29.59R FOG
MONTROSE       CLOUDY    30  26  85 S7        29.60S WCI  23
EAGLE          CLOUDY    26  24  92 CALM      29.56S
RIFLE          LGT SNOW  30  29  96 CALM      29.57R FOG
DELTA          CLOUDY    33  33  98 E3        29.59S VSB 1/2
NUCLA          LGT SNOW  32  30  93 SW5       29.65R WCI  27
$$

COZ017>023-064>068-201400-
...SOUTHWEST COLORADO...

CITY           SKY/WX    TMP DP  RH WIND       PRES   REMARKS
DURANGO        FLURRIES  25  21  85 SW9       29.65R WCI  15
CORTEZ         CLOUDY    29  27  92 W5        29.66S WCI  24
PAGOSA SPRINGS LGT SNOW  26  20  80 S6        29.64S WCI  19
TELLURIDE      LGT SNOW  22  17  80 CALM      29.60S
WOLF CREEK PAS CLOUDY     9   7  92 S22G33    29.57S WCI -11
$$

COZ009-010-012-014-032>034-037-058>063-201400-
...CENTRAL COLORADO...

CITY           SKY/WX    TMP DP  RH WIND       PRES   REMARKS
ASPEN          LGT SNOW  25  24  96 CALM      29.51S FOG
BUENA VISTA    CLOUDY    21  18  86 CALM      29.50F
COPPER MTN     LGT SNOW  19  14  79 MISG      29.49F
BERTHOUD PASS  NOT AVBL
COTTONWOOD PAS CLOUDY    25  21  86 N3        29.48S
GUNNISON       LGT SNOW  12   9  85 CALM      29.58F FOG
KREMMLING      CLOUDY    19  16  86 CALM      29.56S
LEADVILLE      CLOUDY    17  13  84 N5        29.48S WCI  10
MONARCH PASS   CLOUDY    14  10  85 W13G24    29.58S WCI   0
SALIDA         FAIR      29  20  70 W6        29.57S WCI  22
SUNLIGHT       SNOW      18  16  93 SW7       29.56R VSB 1/2 WCI   8
WILKERSON PASS NOT AVBL
$$

COZ069>075-201400-
...SAN LUIS VALLEY/SANGRE DE CRISTO MOUNTAINS...

CITY           SKY/WX    TMP DP  RH WIND       PRES   REMARKS
ALAMOSA        CLOUDY    18  17  96 CALM      29.56S
LA VETA PASS   CLOUDY    19  18  93 N24G47    29.49R WCI   2
SAGUACHE       CLOUDY    21  21 100 CALM      29.56F
$$

COZ035-036-038>040-201400-
...NORTHERN COLORADO FRONT RANGE...

CITY           SKY/WX    TMP DP  RH WIND       PRES   REMARKS
DENVER INTL AP CLOUDY    34  24  67 CALM      29.45R
DMNS CITY PARK   N/A     36  30  77 E9        29.45F
AURORA         CLOUDY    36  24  62 W5        29.45S
FRONT RANGE AP NOT AVBL
ERIE MUNI ARPT CLOUDY    32  28  86 CALM      29.46S
BOULDER MUN AP CLOUDY    34  27  75 NE3       29.45S
CENTENNIAL     CLOUDY    36  25  64 NE7       29.45R
BROOMFIELD     PTCLDY    37  25  60 N7        29.45F
FORT COLLINS   FAIR      32  25  74 CALM      29.46S
LONGMONT       CLOUDY    35  28  75 CALM      29.47S
$$

COZ041-046-047-076>085-087-088-201400-
...PIKES PEAK/PALMER DIVIDE AND SOUTHERN FOOTHILLS...

CITY           SKY/WX    TMP DP  RH WIND       PRES   REMARKS
COLO. SPRINGS  CLOUDY    35  28  75 N17       29.45S WCI  25
A. F. ACADEMY  CLOUDY    33  28  81 N9        29.44F WCI  25
SCHRIEVER AFB  NOT AVBL
ELLICOTT       SNOW     N/A N/A N/A N14       29.47R
FALCON         CLOUDY    32  29  90 N10G17    29.46S WCI  23
FORT CARSON    NOT AVBL
LIMON          CLOUDY    30  26  85 CALM      29.47R
MONUMENT HILL  LGT SNOW  30  28  93 CALM      29.48S
TRINIDAD       FAIR      26  22  84 W6        29.47S WCI  19
$$

COZ042>045-048>051-090-091-201400-
...NORTHEAST COLORADO...

CITY           SKY/WX    TMP DP  RH WIND       PRES   REMARKS
GREELEY ARPT   MOCLDY    29  26  89 CALM      29.47S
AKRON          MOCLDY    29  23  78 W9        29.44R WCI  20
BURLINGTON     CLOUDY    31  29  92 NW6       29.45R WCI  25
WRAY           FAIR      27  27 100 CALM      29.45
STERLING       FAIR      23  21  93 S3        29.44S
HOLYOKE        FAIR      34  28  80 NW7       29.44S WCI  28
FORT MORGAN    CLOUDY    29  26  87 W6        29.46S WCI  23
$$

COZ086-089-092>099-201400-
...SOUTHEAST COLORADO...

CITY           SKY/WX    TMP DP  RH WIND       PRES   REMARKS
PUEBLO         CLOUDY    41  32  70 CALM      29.45R
LA JUNTA       MOCLDY    30  27  88 SW7       29.44F WCI  23
LAMAR          CLOUDY    30  27  88 CALM      29.42F FOG
SPRINGFIELD      N/A     37  33  85 W12       29.44R
$$




USA.gov is the U.S. government's official web portal to all federal, state and local government web resources and services.